Weather History for San Jose, Costa Rica

Change the Weather History Date:

Friday, May 3, 2013

  Actual Average Record
Temperature  
Mean Temperature 75 °F -  
Max Temperature 82 °F 81 °F 87 °F (2001)
Min Temperature 68 °F 65 °F 62 °F (1999)
Cooling Degree Days 10    
Growing Degree Days 25 (Base 50)    
Moisture  
Dew Point 67 °F    
Average Humidity 79    
Maximum Humidity 96    
Minimum Humidity 54    
Precipitation  
Precipitation 0.00 in 0.35 in - ()
Sea Level Pressure  
Sea Level Pressure 29.99 in    
Wind  
Wind Speed 4 mph ()    
Max Wind Speed 13 mph    
Max Gust Speed -    
Visibility 6.1 miles    
Events Fog , Rain    
Averages and records for this station are not official NWS values.
T = Trace of Precipitation, MM = Missing Value Source: Averaged Metar Reports

Daily Weather History Graph

Daily Weather History Graph

Search for Another Location

Airport:

Trip Planner

Search our weather history database for the weather conditions in past years. The results will help you decide how hot, cold, wet, or windy it might be!

Date:

Astronomy

May. 03, 2013 Rise Set
Actual Time 5:18 AM CST 5:48 PM CST
Civil Twilight 4:56 AM CST 6:10 PM CST
Nautical Twilight 4:31 AM CST 6:36 PM CST
Astronomical Twilight 4:05 AM CST 7:02 PM CST
Moon 12:33 AM CST (5/3) 12:46 PM CST (5/3)
Length of Visible Light 13h 13m
Length of Day
12h 29m
Last Quarter, 36% of the Moon is Illuminated
May 3
Last Quarter
May 9
New
May 17
First Quarter
May 24
Full
May 31
Last Quarter

Hourly Weather History & Observations

Time (CST) Temp. Heat Index Dew Point Humidity Pressure Visibility Wind Dir Wind Speed Gust Speed Precip Events Conditions
12:00 AM 69 °F - 68 °F 96% 29.85 in 0 mi WSW 3.5 mph - -   Mist
12:00 AM 69.8 °F - 68.0 °F 94% 30.03 in 0.5 mi WSW 3.5 mph - N/A Fog Fog
12:25 AM 69.8 °F - 68.0 °F 94% 30.02 in 3.1 mi West 3.5 mph - N/A   Mostly Cloudy
1:00 AM 69.8 °F - 68.0 °F 94% 30.00 in 5.0 mi SSW 2.3 mph - N/A Fog Fog
2:00 AM 69.8 °F - 68.0 °F 94% 29.99 in 5.0 mi WSW 3.5 mph - N/A Fog Fog
3:00 AM 70 °F - 68 °F 91% 29.80 in 3 mi WNW 2.3 mph - -   Mist
3:00 AM 69.8 °F - 68.0 °F 94% 29.99 in 6.2 mi WNW 2.3 mph - N/A Fog Patches of Fog
4:00 AM 69.8 °F - 68.0 °F 94% 29.98 in 6.2 mi North 1.2 mph - N/A   Mostly Cloudy
5:00 AM 69.8 °F - 66.2 °F 88% 30.00 in 6.2 mi SSE 2.3 mph - N/A   Mostly Cloudy
6:00 AM 70 °F - 68 °F 91% 29.89 in 9 mi NW 2.3 mph - -   Mist
6:00 AM 69.8 °F - 68.0 °F 94% 30.04 in 6.2 mi NW 2.3 mph - N/A Fog Patches of Fog
7:00 AM 73.4 °F - 64.4 °F 73% 30.05 in - NE 5.8 mph - N/A   Clear
8:00 AM 77.0 °F - 66.2 °F 69% 30.07 in 6.2 mi East 2.3 mph - N/A   Mostly Cloudy
8:26 AM 77.0 °F - 66.2 °F 69% 30.08 in 6.2 mi WSW 4.6 mph - N/A   Mostly Cloudy
9:00 AM 75 °F - 68 °F 73% 29.89 in 9 mi SW 6.9 mph - -   Haze
9:00 AM 75.2 °F - 68.0 °F 78% 30.07 in 6.2 mi SW 6.9 mph - N/A   Mostly Cloudy
10:00 AM 77.0 °F - 68.0 °F 74% 30.08 in 6.2 mi WSW 9.2 mph - N/A   Mostly Cloudy
11:00 AM 77.0 °F - 66.2 °F 69% 30.06 in 6.2 mi SW 6.9 mph - N/A   Mostly Cloudy
12:00 PM 80 °F - 66 °F 54% 29.87 in 12 mi West 5.8 mph - -   Overcast
12:00 PM 78.8 °F - 66.2 °F 65% 30.02 in 6.2 mi West 5.8 mph - N/A   Mostly Cloudy
1:00 PM 80.6 °F 83.2 °F 68.0 °F 65% 29.98 in 6.2 mi SW 9.2 mph - N/A   Mostly Cloudy
2:00 PM 82.4 °F 84.6 °F 66.2 °F 58% 29.96 in 6.2 mi WSW 10.4 mph - N/A   Mostly Cloudy
3:00 PM 78.8 °F - 64.4 °F 61% 29.94 in 6.2 mi SSW 11.5 mph - N/A   Mostly Cloudy
4:00 PM 75.2 °F - 66.2 °F 73% 29.97 in 6.2 mi WSW 11.5 mph - N/A   Scattered Clouds
5:00 PM 73.4 °F - 66.2 °F 78% 30.01 in 6.2 mi WSW 8.1 mph - N/A   Mostly Cloudy
6:00 PM 71.6 °F - 68.0 °F 88% 30.00 in 6.2 mi SW 5.8 mph - N/A Rain Light Rain
7:00 PM 71.6 °F - 66.2 °F 83% 30.00 in 6.2 mi East 3.5 mph - N/A Rain Light Rain
8:00 PM 71.6 °F - 66.2 °F 83% 30.03 in 6.2 mi ENE 4.6 mph - N/A   Mostly Cloudy
9:00 PM 71 °F - 64 °F 72% 29.86 in 12 mi NNE 4.6 mph - -   Overcast
9:00 PM 71.6 °F - 64.4 °F 78% 30.02 in 6.2 mi NNE 4.6 mph - N/A   Mostly Cloudy
10:00 PM 73.4 °F - 62.6 °F 69% 30.04 in 6.2 mi ENE 12.7 mph - N/A   Mostly Cloudy
11:00 PM 73.4 °F - 62.6 °F 69% 30.02 in - ENE 8.1 mph - N/A   Clear